This demonstration page uses our WeatherBlox Daily Observations layout. Learn more.

Left ArrowRight Arrow

Hourly Observations for April 1, 2021

Temp ( °F °C ) Dew Point ( °F °C ) Humidity (%) Winds ( mph kmh ) Pressure ( in mb ) Visibility ( mi km ) Precip ( " mm )
12:15 am 00:15 Cloudy with Light Rain 45 7 43 6 93 93 NNW 20 31 29.95 1014 10 16.0934 0 0
12:35 am 00:35 Cloudy with Light Rain 43 6 41 5 93 93 N 14 22 29.96 1015 7 11.26538 0.01 0.254
12:55 am 00:55 Cloudy with Rain 41 5 41 5 100 100 N 16 26 29.94 1014 7 11.26538 0.03 0.762
1:15 am 01:15 Cloudy with Light Rain 41 5 39 4 93 93 NNW 17 28 29.95 1014 10 16.0934 0 0
1:35 am 01:35 Cloudy with Rain 41 5 39 4 93 93 N 20 31 29.95 1014 7 11.26538 0.02 0.508
1:55 am 01:55 Cloudy with Light Rain 41 5 37 3 87 87 N 16 26 29.95 1014 10 16.0934 0.04 1.016
2:15 am 02:15 Cloudy with Rain 39 4 37 3 93 93 N 18 30 29.96 1014 7 11.26538 0.02 0.508
2:35 am 02:35 Cloudy with Light Rain 37 3 37 3 100 100 NNW 16 26 29.98 1015 7 11.26538 0.04 1.016
2:55 am 02:55 Cloudy with Rain 37 3 37 3 100 100 N 17 28 29.98 1015 7 11.26538 0.06 1.524
3:15 am 03:15 Cloudy with Heavy Rain 37 3 37 3 100 100 N 17 28 29.97 1015 4 6.43736 0.05 1.27
3:35 am 03:35 Cloudy with Rain 37 3 36 2 93 93 N 16 26 29.97 1015 4 6.43736 0.11 2.794
3:55 am 03:55 Cloudy with Light Rain 37 3 36 2 93 93 N 17 28 29.99 1015 10 16.0934 0.12 3.048
4:15 am 04:15 Cloudy with Light Rain 37 3 36 2 93 93 N 14 22 29.98 1015 10 16.0934 0 0
4:35 am 04:35 Cloudy with Rain 36 2 36 2 100 100 NNW 16 26 29.97 1015 5 8.0467 0.02 0.508
4:55 am 04:55 Cloudy with Rain 36 2 34 1 93 93 NNW 17 28 29.98 1015 5 8.0467 0.06 1.524
5:15 am 05:15 Cloudy with Light Rain 34 1 34 1 100 100 N 12 19 29.97 1015 7 11.26538 0.02 0.508
5:35 am 05:35 Cloudy with Light Rain 34 1 34 1 100 100 N 8 13 29.97 1015 10 16.0934 0.02 0.508
5:55 am 05:55 Cloudy 34 1 34 1 100 100 NW 5 7 29.99 1016 10 16.0934 0.03 0.762
6:15 am 06:15 Cloudy 34 1 34 1 100 100 NNW 3 6 29.99 1016 10 16.0934 0 0
6:35 am 06:35 Cloudy 36 2 36 2 100 100 NNW 8 13 29.99 1016 10 16.0934 0 0
6:55 am 06:55 Cloudy 36 2 34 1 93 93 NNW 7 11 29.99 1016 10 16.0934 0 0
7:15 am 07:15 Cloudy 36 2 34 1 93 93 NNW 10 17 30.01 1016 10 16.0934 0 0
7:35 am 07:35 Cloudy 36 2 34 1 93 93 NW 8 13 30.01 1016 10 16.0934 0 0
7:55 am 07:55 Mostly Cloudy 37 3 34 1 87 87 NW 10 17 30.01 1016 10 16.0934 0 0
8:15 am 08:15 Partly Cloudy 37 3 34 1 87 87 NW 8 13 30.02 1016 10 16.0934 0 0
8:35 am 08:35 Partly Cloudy 37 3 34 1 87 87 NW 10 17 30.02 1016 10 16.0934 0 0
8:55 am 08:55 Partly Cloudy 39 4 34 1 81 81 NW 20 31 30.01 1016 10 16.0934 0 0
9:15 am 09:15 Sunny 41 5 34 1 76 76 NNW 20 31 30 1016 10 16.0934 0 0
9:35 am 09:35 Partly Cloudy 41 5 34 1 76 76 NW 18 30 30.01 1016 10 16.0934 0 0
9:55 am 09:55 Partly Cloudy 43 6 32 0 66 66 NW 15 24 30.01 1016 10 16.0934 0 0
10:15 am 10:15 Partly Cloudy 43 6 32 0 66 66 NW 24 39 30.01 1016 10 16.0934 0 0
10:35 am 10:35 Partly Cloudy 43 6 32 0 66 66 NNW 18 30 30.01 1016 10 16.0934 0 0
10:55 am 10:55 Mostly Cloudy 43 6 32 0 66 66 NW 21 33 30.02 1017 10 16.0934 0 0
11:15 am 11:15 Mostly Cloudy 43 6 32 0 66 66 NW 20 31 30.02 1017 10 16.0934 0 0
11:35 am 11:35 Cloudy 45 7 32 0 61 61 NW 23 37 30.02 1017 10 16.0934 0 0
11:55 am 11:55 Cloudy 45 7 30 -1 57 57 NNW 20 31 30.02 1017 10 16.0934 0 0
12:15 pm 12:15 Cloudy 45 7 30 -1 57 57 NW 16 26 30.03 1017 10 16.0934 0 0
12:35 pm 12:35 Cloudy 43 6 28 -2 57 57 NW 21 33 30.03 1017 10 16.0934 0 0
12:55 pm 12:55 Cloudy 45 7 28 -2 53 53 WNW 16 26 30.03 1017 10 16.0934 0 0
1:15 pm 13:15 Cloudy 46 8 30 -1 53 53 NW 16 26 30.03 1017 10 16.0934 0 0
1:35 pm 13:35 Cloudy 46 8 30 -1 53 53 WNW 23 37 30.04 1017 10 16.0934 0 0
1:55 pm 13:55 Cloudy 45 7 30 -1 57 57 WNW 23 37 30.05 1018 10 16.0934 0 0
2:15 pm 14:15 Cloudy 45 7 28 -2 53 53 WNW 17 28 30.05 1018 10 16.0934 0 0
2:35 pm 14:35 Cloudy 45 7 28 -2 53 53 WNW 25 41 30.05 1018 10 16.0934 0 0
2:55 pm 14:55 Cloudy 45 7 28 -2 53 53 NW 25 41 30.05 1018 10 16.0934 0 0
3:15 pm 15:15 Cloudy 45 7 30 -1 57 57 NW 22 35 30.05 1018 10 16.0934 0 0
3:35 pm 15:35 Cloudy 45 7 30 -1 57 57 NW 26 43 30.05 1018 10 16.0934 0 0
3:55 pm 15:55 Cloudy 43 6 30 -1 61 61 NNW 26 43 30.07 1018 10 16.0934 0 0
4:15 pm 16:15 Cloudy 43 6 30 -1 61 61 NW 14 22 30.07 1018 10 16.0934 0 0
4:35 pm 16:35 Cloudy 43 6 28 -2 57 57 NNW 23 37 30.08 1019 10 16.0934 0 0
4:55 pm 16:55 Cloudy 41 5 28 -2 61 61 NNW 16 26 30.09 1019 10 16.0934 0 0
5:15 pm 17:15 Cloudy 39 4 28 -2 65 65 NNW 24 39 30.11 1019 10 16.0934 0 0
5:35 pm 17:35 Cloudy 41 5 27 -3 57 57 NNW 18 30 30.11 1020 10 16.0934 0 0
5:55 pm 17:55 Cloudy 43 6 27 -3 53 53 NNW 25 41 30.11 1020 10 16.0934 0 0
6:15 pm 18:15 Partly Cloudy 41 5 21 -6 45 45 NNW 22 35 30.11 1020 10 16.0934 0 0
6:35 pm 18:35 Partly Cloudy 41 5 23 -5 49 49 NNW 17 28 30.13 1020 10 16.0934 0 0
6:55 pm 18:55 Cloudy 39 4 27 -3 61 61 NW 25 41 30.15 1021 10 16.0934 0 0
7:15 pm 19:15 Partly Cloudy 36 2 28 -2 75 75 NW 23 37 30.16 1021 10 16.0934 0 0
7:35 pm 19:35 Partly Cloudy 36 2 28 -2 75 75 NW 17 28 30.17 1022 10 16.0934 0 0
7:55 pm 19:55 Mostly Cloudy 36 2 28 -2 75 75 NNW 22 35 30.19 1022 10 16.0934 0 0
8:15 pm 20:15 Mostly Cloudy 34 1 27 -3 75 75 N 18 30 30.2 1023 10 16.0934 0 0
8:35 pm 20:35 Clear 34 1 27 -3 75 75 NNW 16 26 30.21 1023 10 16.0934 0 0
8:55 pm 20:55 Clear 34 1 27 -3 75 75 N 16 26 30.21 1023 10 16.0934 0 0
9:15 pm 21:15 Clear 34 1 27 -3 75 75 NNW 15 24 30.23 1024 10 16.0934 0 0
9:35 pm 21:35 Partly Cloudy 34 1 27 -3 75 75 NNW 16 26 30.23 1024 10 16.0934 0 0
9:55 pm 21:55 Partly Cloudy 34 1 25 -4 70 70 NW 14 22 30.23 1024 10 16.0934 0 0
10:15 pm 22:15 Partly Cloudy 32 0 23 -5 69 69 NNW 21 33 30.23 1024 10 16.0934 0 0
10:35 pm 22:35 Clear 32 0 23 -5 69 69 NNW 9 15 30.24 1024 10 16.0934 0 0
10:55 pm 22:55 Clear 32 0 21 -6 64 64 NW 22 35 30.23 1024 10 16.0934 0 0
11:15 pm 23:15 Clear 32 0 21 -6 64 64 NW 15 24 30.24 1024 10 16.0934 0 0
11:35 pm 23:35 Clear 32 0 21 -6 64 64 NW 16 26 30.23 1024 10 16.0934 0 0
11:55 pm 23:55 Clear 32 0 21 -6 64 64 NW 14 22 30.23 1024 10 16.0934 0 0

Powered by AerisWeather